Date String (YYYY-MM-DD hh:mm:ss) UTC,Instrument flags,Ambient pressure (hPa),Sample flow (lpm),Bypass flow (lpm),Sample temperature (°C),Ambient temperature (°C),ASC tube jacket temperature (°C),LED temperature (°C),Box temperature (°C),Sample RH (%),Span deviation,Mass concentration (μg/m³),Mass concentration (μg/m³),Mass concentration (μg/m³)
DateTimeUTC,F1_M11,P_M11,Q1_M11,Q2_M11,T1_M11,T2_M11,T3_M11,T4_M11,T5_M11,U1_M11,ZSPAN_M11,X2_M11,X0_M11,X1_M11
2022-02-05 00:00:00,,0831.6,5.00,0.00,23.1,22.5,00.0,32.1,24.8,07.5,0000.0,0003.68,0008.43,0003.34
2022-02-05 00:01:00,,0831.7,5.01,0.00,23.1,22.5,00.0,32.1,24.9,07.5,0000.0,0003.70,0008.84,0003.36
2022-02-05 00:02:00,,0831.6,4.99,0.00,23.1,22.5,00.0,32.1,24.9,07.5,0000.0,0003.73,0009.23,0003.38
2022-02-05 00:03:00,,0831.7,5.02,0.00,23.1,22.5,00.0,32.1,24.9,07.5,0000.0,0003.76,0009.71,0003.41
2022-02-05 00:04:00,,0831.7,4.98,0.00,23.1,22.5,00.0,32.1,24.9,07.5,0000.0,0003.79,0009.57,0003.44
2022-02-05 00:05:00,,0831.7,5.00,0.00,23.1,22.5,00.0,32.1,24.9,07.5,0000.0,0003.82,0009.60,0003.46
2022-02-05 00:06:00,,0831.7,5.01,0.00,23.1,22.5,00.0,32.1,24.9,07.5,0000.0,0003.80,0009.55,0003.46
2022-02-05 00:07:00,,0831.7,4.98,0.00,23.1,22.5,00.0,32.1,24.9,07.5,0000.0,0003.81,0009.29,0003.47
2022-02-05 00:08:00,,0831.7,5.00,0.00,23.1,22.5,00.0,32.1,24.9,07.5,0000.0,0003.79,0008.57,0003.47
2022-02-05 00:09:00,,0831.6,4.99,0.00,23.1,22.5,00.0,32.1,24.8,07.5,0000.0,0003.81,0008.61,0003.48
2022-02-05 00:10:00,,0831.6,5.01,0.00,23.1,22.5,00.0,32.1,24.9,07.5,0000.0,0003.86,0008.93,0003.49
2022-02-05 00:11:00,,0831.6,4.99,0.00,23.1,22.5,00.0,32.1,24.9,07.5,0000.0,0003.92,0009.07,0003.51
2022-02-05 00:12:00,,0831.6,5.01,0.00,23.1,22.5,00.0,32.1,24.9,07.5,0000.0,0003.94,0008.73,0003.52
2022-02-05 00:13:00,,0831.7,5.00,0.00,23.1,22.5,00.0,32.1,24.9,07.5,0000.0,0003.94,0008.31,0003.54
2022-02-05 00:14:00,,0831.7,5.00,0.00,23.1,22.4,00.0,32.1,24.8,07.6,0000.0,0003.95,0007.84,0003.55
2022-02-05 00:15:00,,0831.7,5.02,0.00,23.0,22.4,00.0,32.1,24.8,07.6,0000.0,0003.95,0008.03,0003.55
2022-02-05 00:16:00,,0831.7,4.99,0.00,23.0,22.4,00.0,32.0,24.8,07.6,0000.0,0003.96,0008.13,0003.56
2022-02-05 00:17:00,,0831.7,5.01,0.00,23.0,22.3,00.0,32.0,24.8,07.6,0000.0,0003.97,0008.41,0003.57
2022-02-05 00:18:00,,0831.8,5.00,0.00,23.0,22.2,00.0,32.0,24.7,07.7,0000.0,0004.00,0008.70,0003.58
2022-02-05 00:19:00,,0831.7,5.01,0.00,22.9,22.2,00.0,32.0,24.6,07.7,0000.0,0004.06,0008.90,0003.59
2022-02-05 00:20:00,,0831.7,4.99,0.00,22.9,22.1,00.0,32.0,24.5,07.7,0000.0,0004.07,0009.11,0003.58
2022-02-05 00:21:00,,0831.7,5.01,0.00,22.8,22.0,00.0,32.0,24.5,07.7,0000.0,0004.05,0009.27,0003.57
2022-02-05 00:22:00,,0831.6,4.99,0.00,22.8,21.9,00.0,32.0,24.4,07.7,0000.0,0003.97,0009.22,0003.55
2022-02-05 00:23:00,,0831.6,5.02,0.00,22.8,21.9,00.0,31.9,24.4,07.8,0000.0,0003.94,0009.54,0003.53
2022-02-05 00:24:00,,0831.6,4.99,0.00,22.7,21.9,00.0,31.9,24.3,07.8,0000.0,0003.92,0009.70,0003.51
2022-02-05 00:25:00,,0831.6,4.99,0.00,22.7,21.9,00.0,31.9,24.4,07.8,0000.0,0003.90,0009.64,0003.49
2022-02-05 00:26:00,,0831.7,5.00,0.00,22.7,21.9,00.0,31.9,24.4,07.8,0000.0,0003.89,0009.51,0003.46
2022-02-05 00:27:00,,0831.6,5.02,0.00,22.7,21.9,00.0,31.8,24.4,07.8,0000.0,0003.88,0009.42,0003.45
2022-02-05 00:28:00,,0831.7,4.99,0.00,22.7,21.9,00.0,31.8,24.3,07.9,0000.0,0003.85,0009.54,0003.43
2022-02-05 00:29:00,,0831.7,5.01,0.00,22.7,22.0,00.0,31.8,24.4,07.9,0000.0,0003.85,0009.88,0003.41
2022-02-05 00:30:00,,0831.7,4.99,0.00,22.7,21.9,00.0,31.8,24.3,07.8,0000.0,0003.80,0009.70,0003.39
2022-02-05 00:31:00,,0831.7,5.00,0.00,22.7,21.9,00.0,31.8,24.3,07.9,0000.0,0003.79,0009.38,0003.38
2022-02-05 00:32:00,,0831.7,5.00,0.00,22.6,21.9,00.0,31.8,24.3,07.9,0000.0,0003.78,0008.92,0003.38
2022-02-05 00:33:00,,0831.7,5.00,0.00,22.6,21.9,00.0,31.8,24.3,07.8,0000.0,0003.79,0009.05,0003.37
2022-02-05 00:34:00,,0831.7,5.00,0.00,22.7,22.0,00.0,31.7,24.3,07.8,0000.0,0003.80,0009.06,0003.37
2022-02-05 00:35:00,,0831.7,5.02,0.00,22.7,22.0,00.0,31.7,24.4,07.8,0000.0,0003.82,0009.02,0003.37
2022-02-05 00:36:00,,0831.7,5.00,0.00,22.7,22.0,00.0,31.7,24.4,07.8,0000.0,0003.82,0009.58,0003.37
2022-02-05 00:37:00,,0831.7,4.99,0.00,22.7,22.0,00.0,31.7,24.4,07.9,0000.0,0003.80,0009.60,0003.37
2022-02-05 00:38:00,,0831.6,5.00,0.00,22.7,22.0,00.0,31.7,24.4,07.9,0000.0,0003.84,0010.25,0003.38
2022-02-05 00:39:00,,0831.6,5.01,0.00,22.7,22.1,00.0,31.7,24.4,07.9,0000.0,0003.87,0010.01,0003.39
2022-02-05 00:40:00,,0831.7,5.00,0.00,22.7,22.1,00.0,31.7,24.4,07.9,0000.0,0003.84,0010.16,0003.40
2022-02-05 00:41:00,,0831.7,4.99,0.00,22.7,22.1,00.0,31.7,24.5,07.9,0000.0,0003.83,0010.26,0003.42
2022-02-05 00:42:00,,0831.6,5.01,0.00,22.7,22.1,00.0,31.7,24.5,08.0,0000.0,0003.82,0010.24,0003.43
2022-02-05 00:43:00,,0831.6,5.00,0.00,22.7,22.1,00.0,31.7,24.4,08.1,0000.0,0003.82,0010.11,0003.44
2022-02-05 00:44:00,,0831.7,4.99,0.00,22.7,22.0,00.0,31.7,24.3,08.1,0000.0,0003.82,0009.79,0003.45
2022-02-05 00:45:00,,0831.7,5.01,0.00,22.6,21.9,00.0,31.7,24.3,08.1,0000.0,0003.82,0009.55,0003.47
2022-02-05 00:46:00,,0831.7,5.00,0.00,22.6,21.9,00.0,31.7,24.2,08.2,0000.0,0003.84,0009.45,0003.48
2022-02-05 00:47:00,,0831.7,4.99,0.00,22.6,21.8,00.0,31.7,24.2,08.2,0000.0,0003.86,0009.04,0003.48
2022-02-05 00:48:00,,0831.7,5.01,0.00,22.5,21.7,00.0,31.7,24.2,08.2,0000.0,0003.85,0008.95,0003.48
2022-02-05 00:49:00,,0831.7,5.00,0.00,22.5,21.7,00.0,31.6,24.1,08.3,0000.0,0003.81,0008.82,0003.48
2022-02-05 00:50:00,,0831.7,4.99,0.00,22.4,21.6,00.0,31.6,24.0,08.3,0000.0,0003.81,0008.71,0003.49
2022-02-05 00:51:00,,0831.7,5.01,0.00,22.4,21.5,00.0,31.6,24.0,08.3,0000.0,0003.83,0008.02,0003.50
2022-02-05 00:52:00,,0831.7,4.99,0.00,22.3,21.4,00.0,31.6,23.9,08.3,0000.0,0003.85,0008.27,0003.51
2022-02-05 00:53:00,,0831.7,5.02,0.00,22.3,21.4,00.0,31.5,23.8,08.5,0000.0,0003.86,0008.81,0003.51
2022-02-05 00:54:00,,0831.8,4.99,0.00,22.2,21.3,00.0,31.5,23.8,08.6,0000.0,0003.89,0009.15,0003.52
2022-02-05 00:55:00,,0831.7,4.99,0.00,22.2,21.3,00.0,31.5,23.7,08.6,0000.0,0003.93,0009.23,0003.53
2022-02-05 00:56:00,,0831.7,5.02,0.00,22.1,21.3,00.0,31.4,23.7,08.6,0000.0,0003.94,0009.25,0003.54
2022-02-05 00:57:00,,0831.7,4.98,0.00,22.1,21.2,00.0,31.4,23.7,08.6,0000.0,0003.92,0009.36,0003.54
2022-02-05 00:58:00,,0831.7,4.99,0.00,22.1,21.2,00.0,31.4,23.7,08.5,0000.0,0003.91,0009.34,0003.55
2022-02-05 00:59:00,,0831.7,5.02,0.00,22.0,21.2,00.0,31.3,23.6,08.5,0000.0,0003.93,0009.41,0003.55
